Aérodrome :
LOGIN :

S'inscrire | Disclaimer

   EN    FR    IT 

 










Légende :    VFR   VFR Marginal   IFR   IFR Intensif   IFR Très Intensif
Visi : 
Plafond : 
>= 8 km
>= 3000ft
5 à 8 km
1000 à 3000 ft
1500m à 5 km
500 à 1000 ft
800 à 1500m
200 à 500 ft
< 800m
< 200 ft
Symboles :   Orages  Brouillard  Fortes neiges  Fortes précipitations  Vent > 20 kt
SIGMETs :   Divers  Orages  Givrage  Turbulence  Onde Orograph.  Cendres Volcan.







- Altitude de l'aérodrome : 106 ft
- Code IATA : NRN


EDLV - Weeze

DERNIER METAR :
  • 240420Z 22007KT 9999 BKN035 16/14 Q1015

METARs EXPIRÉS :
  • 240350Z 23008KT 9999 FEW030 16/14 Q1015
  • 240320Z 23008KT CAVOK 17/14 Q1015
  • 240250Z 24008KT CAVOK 17/14 Q1015

TAF TAF EDLV
Valide du 24 à 04h jusqu'au 25 à 00h UTC


240355Z 2404/2424 25008KT CAVOK
TEMPO 2404/2406 BKN014
TEMPO 2408/2415 26015KT
BECMG 2415/2418 VRB02KT
Pas de NOTAMs connus pour ce terrain.



MET'MAP, la Météo Aéronautique d'un coup d'oeil ! - Copyright ORBIFLY Décembre 2007 - Disclaimer

ORBIFLY MET'MAP TEAM :

Programmation & Développement : Alexandra Zaïnal
Conception & Développement : Baudouin d'Aumeries
Co-Programmation & Développement : Marc-Olivier Méhu
Soutien technique & logistique : Manuel Goepfert

Contact : metmap@orbifly.com




SOURCES & CREDITS :

   NOAA